When you browse on this site, cookies collect data to enhance your experience and personalize the content and advertising you see.
Visit our Privacy Policy to learn more. By continuing to use the site, you agree to this use of cookies and data.
  • In Latvia
  • List of Countries
  • For 7 days
  • Water Temperature
  • Weather Map
  • Weather Widgets
  • user-avatar
    Login

    Hourly Weather Malevka

    Today, 22 August, Thursday

    Time Temperature Precipitation Wind Pressure Humidity
    00:00 +21°C° 0 mm 2 mps 750 mmHg 86%
    01:00 +20°C° 0 mm 2 mps 750 mmHg 87%
    02:00 +20°C° 0 mm 2 mps 750 mmHg 88%
    03:00 +20°C° 0 mm 2 mps 750 mmHg 89%
    04:00 +20°C° 0 mm 2 mps 749 mmHg 89%
    05:00 +20°C° 0 mm 1 mps 749 mmHg 90%
    06:00 +20°C° 0 mm 1 mps 749 mmHg 90%
    07:00 +22°C° 0 mm 1 mps 749 mmHg 84%
    08:00 +23°C° 0 mm 1 mps 749 mmHg 77%
    09:00 +25°C° 0 mm 1 mps 749 mmHg 71%
    10:00 +26°C° 0 mm 1 mps 749 mmHg 67%
    11:00 +27°C° 0 mm 1 mps 749 mmHg 63%
    12:00 +28°C° 0 mm 1 mps 748 mmHg 59%
    13:00 +28°C° 0.1 mm 1 mps 749 mmHg 59%
    14:00 +28°C° 0.1 mm 2 mps 749 mmHg 58%
    15:00 +29°C° 0.1 mm 2 mps 749 mmHg 57%
    16:00 +28°C° 0.5 mm 3 mps 749 mmHg 64%
    17:00 +26°C° 0.5 mm 3 mps 749 mmHg 71%
    18:00 +25°C° 0.5 mm 4 mps 749 mmHg 78%
    19:00 +23°C° 0.2 mm 4 mps 749 mmHg 82%
    20:00 +21°C° 0.2 mm 5 mps 750 mmHg 85%
    21:00 +20°C° 0.2 mm 5 mps 750 mmHg 88%
    22:00 +19°C° 0 mm 5 mps 750 mmHg 87%
    23:00 +17°C° 0 mm 5 mps 750 mmHg 87%

    Tomorrow, 23 August, Friday

    Time Temperature Precipitation Wind Pressure Humidity
    00:00 +17°C° 0 mm 5 mps 751 mmHg 86%
    01:00 +16°C° 0 mm 5 mps 751 mmHg 87%
    02:00 +15°C° 0 mm 5 mps 752 mmHg 88%
    03:00 +15°C° 0 mm 5 mps 752 mmHg 89%
    04:00 +14°C° 0 mm 4 mps 752 mmHg 90%
    05:00 +14°C° 0 mm 4 mps 752 mmHg 91%
    06:00 +13°C° 0 mm 4 mps 752 mmHg 92%
    07:00 +14°C° 0 mm 4 mps 752 mmHg 87%
    08:00 +17°C° 0 mm 4 mps 753 mmHg 82%
    09:00 +17°C° 0 mm 5 mps 753 mmHg 77%
    10:00 +19°C° 0 mm 5 mps 753 mmHg 73%
    11:00 +20°C° 0 mm 5 mps 753 mmHg 68%
    12:00 +21°C° 0 mm 5 mps 753 mmHg 63%
    13:00 +21°C° 0 mm 4 mps 753 mmHg 62%
    14:00 +22°C° 0 mm 4 mps 753 mmHg 60%
    15:00 +22°C° 0 mm 4 mps 753 mmHg 59%
    16:00 +22°C° 0 mm 4 mps 753 mmHg 62%
    17:00 +21°C° 0 mm 3 mps 753 mmHg 66%
    18:00 +20°C° 0 mm 3 mps 752 mmHg 70%
    19:00 +19°C° 0 mm 3 mps 753 mmHg 73%
    20:00 +18°C° 0 mm 3 mps 753 mmHg 76%
    21:00 +17°C° 0 mm 2 mps 753 mmHg 80%
    22:00 +16°C° 0 mm 2 mps 753 mmHg 81%
    23:00 +15°C° 0 mm 2 mps 753 mmHg 82%

    Day after tomorrow, 24 August, Saturday

    Time Temperature Precipitation Wind Pressure Humidity
    00:00 +15°C° 0 mm 2 mps 753 mmHg 83%
    01:00 +15°C° 0 mm 2 mps 753 mmHg 83%
    02:00 +14°C° 0 mm 2 mps 753 mmHg 83%
    03:00 +14°C° 0 mm 2 mps 753 mmHg 83%
    04:00 +14°C° 0 mm 2 mps 753 mmHg 84%
    05:00 +14°C° 0 mm 2 mps 753 mmHg 84%
    06:00 +13°C° 0 mm 2 mps 753 mmHg 85%
    07:00 +15°C° 0 mm 2 mps 753 mmHg 79%
    08:00 +17°C° 0 mm 2 mps 753 mmHg 73%
    09:00 +19°C° 0 mm 2 mps 754 mmHg 68%
    10:00 +20°C° 0 mm 2 mps 753 mmHg 62%
    11:00 +21°C° 0 mm 2 mps 753 mmHg 57%
    12:00 +23°C° 0 mm 2 mps 753 mmHg 52%
    13:00 +24°C° 0 mm 1 mps 753 mmHg 50%
    14:00 +24°C° 0 mm 1 mps 753 mmHg 47%
    15:00 +25°C° 0 mm 1 mps 753 mmHg 45%
    16:00 +24°C° 0 mm 1 mps 752 mmHg 49%
    17:00 +24°C° 0 mm 1 mps 752 mmHg 52%
    18:00 +22°C° 0 mm 0 mps 752 mmHg 56%
    19:00 +20°C° 0 mm 0 mps 752 mmHg 59%
    20:00 +18°C° 0 mm 0 mps 752 mmHg 61%
    21:00 +17°C° 0 mm 0 mps 752 mmHg 64%
    22:00 +16°C° 0 mm 0 mps 752 mmHg 65%
    23:00 +18°C° 0 mm 1 mps 752 mmHg 67%

    25 August, Sunday

    Time Temperature Precipitation Wind Pressure Humidity
    00:00 +16°C° 0 mm 1 mps 752 mmHg 68%
    01:00 +16°C° 0 mm 1 mps 751 mmHg 69%
    02:00 +16°C° 0 mm 1 mps 751 mmHg 71%
    03:00 +15°C° 0 mm 1 mps 751 mmHg 72%
    04:00 +15°C° 0 mm 1 mps 751 mmHg 75%
    05:00 +15°C° 0 mm 2 mps 751 mmHg 78%
    06:00 +14°C° 0 mm 2 mps 750 mmHg 80%
    07:00 +16°C° 0 mm 2 mps 750 mmHg 76%
    08:00 +18°C° 0 mm 2 mps 750 mmHg 72%
    09:00 +20°C° 0 mm 2 mps 750 mmHg 68%
    10:00 +21°C° 0 mm 2 mps 750 mmHg 64%
    11:00 +23°C° 0 mm 2 mps 750 mmHg 59%
    12:00 +24°C° 0 mm 3 mps 750 mmHg 55%
    13:00 +24°C° 0 mm 3 mps 750 mmHg 53%
    14:00 +25°C° 0 mm 3 mps 750 mmHg 51%
    15:00 +25°C° 0 mm 3 mps 750 mmHg 50%
    16:00 +25°C° 0 mm 3 mps 750 mmHg 55%
    17:00 +24°C° 0 mm 3 mps 750 mmHg 61%
    18:00 +22°C° 0 mm 3 mps 750 mmHg 67%
    19:00 +21°C° 0 mm 3 mps 750 mmHg 73%
    20:00 +19°C° 0 mm 3 mps 750 mmHg 79%
    21:00 +18°C° 0 mm 3 mps 750 mmHg 86%
    22:00 +17°C° 0 mm 3 mps 750 mmHg 88%
    23:00 +16°C° 0 mm 3 mps 751 mmHg 90%

    26 August, Monday

    Time Temperature Precipitation Wind Pressure Humidity
    00:00 +16°C° 0 mm 3 mps 751 mmHg 92%
    01:00 +14°C° 0 mm 3 mps 751 mmHg 91%
    02:00 +13°C° 0 mm 3 mps 752 mmHg 91%
    03:00 +13°C° 0 mm 3 mps 752 mmHg 90%
    04:00 +12°C° 0 mm 3 mps 752 mmHg 92%
    05:00 +12°C° 0 mm 3 mps 752 mmHg 93%
    06:00 +11°C° 0 mm 3 mps 753 mmHg 95%
    07:00 +13°C° 0 mm 3 mps 753 mmHg 89%
    08:00 +14°C° 0 mm 3 mps 754 mmHg 84%
    09:00 +15°C° 0 mm 4 mps 754 mmHg 78%
    10:00 +17°C° 0 mm 4 mps 754 mmHg 72%
    11:00 +19°C° 0 mm 4 mps 754 mmHg 67%
    12:00 +20°C° 0 mm 4 mps 755 mmHg 61%
    13:00 +20°C° 0 mm 4 mps 755 mmHg 58%
    14:00 +20°C° 0 mm 3 mps 754 mmHg 56%
    15:00 +21°C° 0 mm 3 mps 754 mmHg 54%
    16:00 +20°C° 0 mm 3 mps 754 mmHg 58%
    17:00 +20°C° 0 mm 3 mps 754 mmHg 62%
    18:00 +19°C° 0 mm 2 mps 754 mmHg 65%
    19:00 +18°C° 0 mm 2 mps 754 mmHg 69%
    20:00 +16°C° 0 mm 2 mps 754 mmHg 73%
    21:00 +15°C° 0 mm 2 mps 754 mmHg 77%
    22:00 +14°C° 0 mm 2 mps 755 mmHg 77%
    23:00 +14°C° 0 mm 2 mps 755 mmHg 77%

    27 August, Tuesday

    Time Temperature Precipitation Wind Pressure Humidity
    00:00 +13°C° 0 mm 1 mps 755 mmHg 77%
    01:00 +13°C° 0 mm 1 mps 755 mmHg 78%
    02:00 +12°C° 0 mm 1 mps 755 mmHg 79%
    03:00 +12°C° 0 mm 1 mps 755 mmHg 80%
    04:00 +12°C° 0 mm 1 mps 755 mmHg 82%
    05:00 +12°C° 0 mm 1 mps 755 mmHg 83%
    06:00 +11°C° 0 mm 1 mps 755 mmHg 85%
    07:00 +13°C° 0 mm 1 mps 755 mmHg 79%
    08:00 +15°C° 0 mm 1 mps 755 mmHg 73%
    09:00 +17°C° 0 mm 2 mps 755 mmHg 67%
    10:00 +18°C° 0 mm 2 mps 755 mmHg 63%
    11:00 +19°C° 0 mm 2 mps 754 mmHg 58%
    12:00 +20°C° 0 mm 2 mps 754 mmHg 54%
    13:00 +21°C° 0 mm 2 mps 754 mmHg 52%
    14:00 +21°C° 0 mm 2 mps 753 mmHg 50%
    15:00 +23°C° 0 mm 2 mps 753 mmHg 48%
    16:00 +23°C° 0 mm 2 mps 753 mmHg 52%
    17:00 +21°C° 0 mm 2 mps 752 mmHg 56%
    18:00 +21°C° 0 mm 2 mps 752 mmHg 60%
    19:00 +20°C° 0 mm 1 mps 752 mmHg 64%
    20:00 +19°C° 0 mm 1 mps 752 mmHg 68%
    21:00 +16°C° 0 mm 1 mps 752 mmHg 72%
    22:00 +16°C° 0 mm 1 mps 752 mmHg 73%
    23:00 +16°C° 0 mm 1 mps 752 mmHg 73%
    Show more